This is the latest recevied weather packets stored in our database for station/object N2RDT. If no packets are shown the sender has not sent any weather packets the latest 10 day(s).
| Time | Temp. | Humidity | Pressure | Rain* | Wind** | Luminosity | Snow |
|---|---|---|---|---|---|---|---|
| 1777810249 | 10° C | 59% | 1019.2 hPa | 0 mm | - | 221 W/m² | - |
| 1777809944 | 10° C | 59% | 1019.4 hPa | 0 mm | - | 199 W/m² | - |
| 1777809643 | 10° C | 60% | 1019.2 hPa | 0 mm | - | 181 W/m² | - |
| 1777809340 | 10° C | 61% | 1019.2 hPa | 0 mm | - | 163 W/m² | - |
| 1777809038 | 9.44° C | 60% | 1019 hPa | 0 mm | - | 146 W/m² | - |
| 1777808735 | 9.44° C | 61% | 1019 hPa | 0 mm | - | 129 W/m² | - |
| 1777808431 | 8.89° C | 63% | 1019 hPa | 0 mm | - | 120 W/m² | - |
| 1777808129 | 8.89° C | 64% | 1018.6 hPa | 0 mm | - | 106 W/m² | - |
| 1777807827 | 8.33° C | 64% | 1018.6 hPa | 0 mm | - | 94 W/m² | - |
| 1777807526 | 8.33° C | 65% | 1018.4 hPa | 0 mm | - | 86 W/m² | - |
| 1777807221 | 7.78° C | 65% | 1018.4 hPa | 0 mm | - | 76 W/m² | - |
| 1777806918 | 7.78° C | 66% | 1018.4 hPa | 0 mm | - | 66 W/m² | - |
| 1777806614 | 7.22° C | 67% | 1018.2 hPa | 0 mm | - | 58 W/m² | - |
| 1777806310 | 7.22° C | 68% | 1018.1 hPa | 0 mm | - | 50 W/m² | - |
| 1777806007 | 6.67° C | 69% | 1017.9 hPa | 0 mm | - | 43 W/m² | - |
| 1777805704 | 6.11° C | 71% | 1017.7 hPa | 0 mm | - | 36 W/m² | - |
| 1777805401 | 5.56° C | 72% | 1017.8 hPa | 0 mm | - | 30 W/m² | - |
| 1777805100 | 6.11° C | 71% | 1017.8 hPa | 0 mm | - | 22 W/m² | - |
| 1777804797 | 6.11° C | 70% | 1017.7 hPa | 0 mm | - | 18 W/m² | - |
| 1777804495 | 6.11° C | 70% | 1017.5 hPa | 0 mm | - | 14 W/m² | - |
| 1777804191 | 6.11° C | 69% | 1017.4 hPa | 0 mm | - | 10 W/m² | - |
| 1777803889 | 6.11° C | 69% | 1017.3 hPa | 0 mm | - | 7 W/m² | - |
| 1777803584 | 6.11° C | 70% | 1017.3 hPa | 0 mm | - | 4 W/m² | - |
| 1777803282 | 6.11° C | 70% | 1017.2 hPa | 0 mm | - | 2 W/m² | - |
| 1777802979 | 6.11° C | 70% | 1017.3 hPa | 0 mm | - | 1 W/m² | - |
* Rain latest hour (hover to see other rain measurements)
** Current wind speed in m/s (hover to see current wind gust speed)